DUMMY MASS 1 1 24925U 97048A 21110.95282024 .00000115 00000-0 10141-4 0 9995 2 24925 86.3304 116.1673 0009184 112.0591 248.1609 14.85260150279699 DUMMY MASS 2 1 24926U 97048B 21111.07604495 .00000110 00000-0 96166-5 0 9997 2 24926 86.3305 117.4585 0009816 119.8707 240.3493 14.85027327279763